Findlay, OH

8:10 AM EST on December 15, 2019 (GMT -0500)
Findlay

Weather History for KFDY - November, 2019

Change the Weather History Date:

Wednesday, November 20, 2019

  Actual Average Record
Temperature  
Mean Temperature 37 °F -  
Max Temperature 46 °F 47 °F 70 °F (1953)
Min Temperature 28 °F 31 °F 12 °F (1951)
Degree Days  
Heating Degree Days 28    
Moisture  
Dew Point 32 °F    
Average Humidity 84    
Maximum Humidity 96    
Minimum Humidity 61    
Precipitation  
Precipitation 0.00 in - - ()
Sea Level Pressure  
Sea Level Pressure 30.14 in    
Wind  
Wind Speed 2 mph (West)    
Max Wind Speed 8 mph    
Max Gust Speed -    
Visibility 5 miles    
Events Fog    
Averages and records for this station are not official NWS values.
T = Trace of Precipitation, MM = Missing Value Source: NWS Daily Summary

Daily Weather History Graph

Daily Weather History Graph

Search for Another Location

Airport or City:

Astronomy

Nov. 20, 2019 Rise Set
Actual Time 7:27 AM EST 5:12 PM EST
Civil Twilight 6:57 AM EST 5:42 PM EST
Nautical Twilight 6:24 AM EST 6:15 PM EST
Astronomical Twilight 5:51 AM EST 6:48 PM EST
Moon 12:08 AM EST (11/20) 2:11 PM EST (11/20)
Length of Visible Light 10h 44m
Length of Day
9h 44m
Last Quarter, 41% of the Moon is Illuminated
Nov 20
Last Quarter
Nov 26
New
Dec 4
First Quarter
Dec 12
Full
Dec 18
Last Quarter

Hourly Weather History & Observations

Time (EST) Temp. Windchill Dew Point Humidity Pressure Visibility Wind Dir Wind Speed Gust Speed Precip Events Conditions
12:53 AM 36.0 °F - 33.1 °F 89% 29.99 in 6.0 mi Calm Calm - N/A   Overcast
1:17 AM 36.0 °F - 33.1 °F 89% 29.99 in 6.0 mi Calm Calm - N/A   Overcast
1:53 AM 36.0 °F - 33.1 °F 89% 30.01 in 4.0 mi Calm Calm - N/A   Overcast
2:37 AM 34.0 °F - 32.0 °F 92% 30.02 in 3.0 mi Calm Calm - N/A   Scattered Clouds
2:53 AM 33.1 °F 28.7 °F 32.0 °F 96% 30.04 in 1.5 mi West 4.6 mph - N/A   Scattered Clouds
3:01 AM 33.1 °F 28.7 °F 30.9 °F 92% 30.04 in 3.0 mi WNW 4.6 mph - N/A   Partly Cloudy
3:16 AM 34.0 °F 31.0 °F 32.0 °F 92% 30.04 in 2.5 mi West 3.5 mph - N/A   Clear
3:33 AM 33.1 °F - 30.9 °F 92% 30.05 in 1.5 mi Calm Calm - N/A   Clear
3:45 AM 33.1 °F 30.0 °F 30.0 °F 89% 30.05 in 0.5 mi West 3.5 mph - N/A Fog Fog
3:53 AM 33.1 °F 30.0 °F 30.9 °F 92% 30.06 in 1.0 mi West 3.5 mph - N/A   Clear
4:03 AM 32.0 °F - 30.9 °F 96% 30.06 in 0.5 mi Calm Calm - N/A Fog Fog
4:26 AM 32.0 °F - 30.0 °F 92% 30.06 in 0.2 mi Calm Calm - N/A Fog Fog
4:35 AM 32.0 °F - 30.0 °F 92% 30.07 in 0.2 mi Calm Calm - N/A Fog Fog
4:53 AM 30.0 °F 26.5 °F 28.9 °F 96% 30.09 in 0.2 mi WSW 3.5 mph - N/A Fog Light Freezing Fog
5:05 AM 30.0 °F 25.2 °F 28.0 °F 92% 30.09 in 0.2 mi West 4.6 mph - N/A Fog Light Freezing Fog
5:37 AM 32.0 °F 28.7 °F 30.0 °F 92% 30.09 in 0.8 mi West 3.5 mph - N/A   Clear
5:53 AM 30.0 °F - 28.9 °F 96% 30.11 in 0.2 mi Calm Calm - N/A Fog Light Freezing Fog
6:19 AM 30.9 °F - 28.0 °F 89% 30.10 in 0.8 mi Calm Calm - N/A   Clear
6:35 AM 32.0 °F 28.7 °F 28.9 °F 88% 30.12 in 1.2 mi West 3.5 mph - N/A   Clear
6:53 AM 28.9 °F - 28.0 °F 96% 30.14 in 0.5 mi Calm Calm - N/A Fog Light Freezing Fog
7:09 AM 30.9 °F 27.5 °F 28.0 °F 89% 30.14 in 2.0 mi WNW 3.5 mph - N/A   Mostly Cloudy
7:24 AM 30.0 °F - 28.0 °F 92% 30.14 in 4.0 mi Calm Calm - N/A   Overcast
7:42 AM 30.9 °F - 28.9 °F 92% 30.15 in 2.0 mi Calm Calm - N/A   Overcast
7:53 AM 32.0 °F - 30.0 °F 92% 30.17 in 3.0 mi Calm Calm - N/A   Overcast
8:53 AM 34.0 °F - 33.1 °F 96% 30.19 in 2.5 mi Calm Calm - N/A   Overcast
9:08 AM 35.1 °F - 33.1 °F 92% 30.18 in 4.0 mi Calm Calm - N/A   Overcast
9:53 AM 37.0 °F - 35.1 °F 93% 30.20 in 4.0 mi Calm Calm - N/A   Overcast
10:53 AM 41.0 °F 37.1 °F 36.0 °F 82% 30.22 in 6.0 mi West 5.8 mph - N/A   Haze
11:53 AM 46.0 °F 43.9 °F 35.1 °F 66% 30.21 in 9.0 mi WNW 4.6 mph - N/A   Overcast
12:53 PM 46.9 °F - 34.0 °F 61% 30.20 in 10.0 mi West 3.5 mph - N/A   Overcast
2:24 PM 46.9 °F - 35.1 °F 63% 30.20 in 10.0 mi WSW 6.9 mph - N/A   Overcast
2:53 PM 46.9 °F - 35.1 °F 63% 30.21 in 10.0 mi West 4.6 mph - N/A   Overcast
3:34 PM 46.9 °F - 35.1 °F 63% 30.20 in 10.0 mi Calm Calm - N/A   Overcast
3:53 PM 46.9 °F - 35.1 °F 63% 30.21 in 10.0 mi Calm Calm - N/A   Overcast
4:53 PM 46.0 °F 44.8 °F 35.1 °F 66% 30.22 in 10.0 mi NW 3.5 mph - N/A   Overcast
5:53 PM 46.0 °F - 35.1 °F 66% 30.22 in 10.0 mi Calm Calm - N/A   Overcast
6:53 PM 44.1 °F - 36.0 °F 73% 30.23 in 10.0 mi Calm Calm - N/A   Overcast
7:26 PM 44.1 °F - 35.1 °F 71% 30.22 in 10.0 mi Calm Calm - N/A   Overcast
7:53 PM 41.0 °F - 35.1 °F 79% 30.25 in 10.0 mi Calm Calm - N/A   Partly Cloudy
8:53 PM 39.9 °F 34.5 °F 34.0 °F 79% 30.24 in 10.0 mi SE 8.1 mph - N/A   Scattered Clouds
9:53 PM 39.0 °F 34.0 °F 34.0 °F 82% 30.24 in 10.0 mi SE 6.9 mph - N/A   Clear
10:53 PM 39.0 °F 34.0 °F 33.1 °F 79% 30.24 in 9.0 mi SSE 6.9 mph - N/A   Clear
11:53 PM 39.9 °F 34.5 °F 33.1 °F 77% 30.22 in 9.0 mi SE 8.1 mph - N/A   Clear